Regional Weather Roundup
Issued by NWS

Home | Current Version | Previous Version | Graphics & Text | Print | Product List | Glossary On
Versions: 1 2 3 4 5 6 7 8 9 10 11 12 13 14 15 16 17 18 19 20 21 22 23 24 25 26 27 28 29 30 31 32 33 34 35 36 37 38 39 40 41 42 43 44 45 46 47 48 49 50
000
ASUS43 KMPX 270701
RWRMN
WEATHER ROUNDUP FOR MINNESOTA
NATIONAL WEATHER SERVICE TWIN CITIES/CHANHASSEN MN
200 AM CDT WED AUG 27 2014


NOTE: "FAIR" INDICATES FEW OR NO CLOUDS BELOW 12,000 FEET WITH NO
SIGNIFICANT WEATHER AND/OR OBSTRUCTIONS TO VISIBILITY. N/A MEANS
CURRENT SKY AND/OR WEATHER CONDITIONS ARE NOT AVAILABLE.

MNZ060>063-068>070-270800-
   Twin Cities Metro

CITY           SKY/WX    TMP DP  RH WIND       PRES   REMARKS
TWIN CITIES    CLOUDY    63  58  83 N7        30.19S
ST PAUL        CLOUDY    63  57  81 N6        30.20R
CRYSTAL        CLOUDY    63  58  83 CALM      30.19R
BLAINE         CLOUDY    63  59  88 CALM      30.20R
LAKEVILLE      LGT RAIN  63  57  82 CALM      30.18S
EDEN PRAIRIE   CLOUDY    63  57  81 N6        30.18S
SOUTH ST PAUL  CLOUDY    64  54  69 N3        30.19R
LAKE ELMO      RAIN      61  57  88 N3        30.20S
$$
MNZ001>005-007-008-013>017-022>024-027-028-270800-
   Northwest Minnesota

CITY           SKY/WX    TMP DP  RH WIND       PRES   REMARKS
BEMIDJI        FOG       46  46  99 CALM      30.20R VSB 1/2
HALLOCK        CLEAR     52  48  87 SE8       30.15S
ROSEAU         CLEAR     46  43  87 S5        30.18S
WARROAD        MOCLDY    46  45  93 S3        30.18F
THIEF RVR FALL CLEAR     48  45  87 S6        30.18S
CROOKSTON      CLEAR     50  48  93 S5        30.18F
FOSSTON        PTCLDY    45  43  93 CALM      30.20S
DETROIT LAKES  CLOUDY    59  55  88 SW5       30.21S
MOORHEAD       CLEAR     57  57 100 CALM      30.20S
PARK RAPIDS    CLOUDY    57  55  93 CALM      30.20S
MAHNOMEN       CLOUDY    56  55  95 CALM      30.19R
$$
MNZ006-009>011-018-025>026-270800-
   North Central Minnesota

CITY           SKY/WX    TMP DP  RH WIND       PRES   REMARKS
BAUDETTE       MOCLDY    45  43  93 SW3       30.19S
FLAG ISLAND    MOCLDY    55  45  67 SW9       30.15S
INTL FALLS     CLEAR     39  38  96 SW3       30.19R
WASKISH        CLOUDY    45  45 100 CALM      30.20S
BIG FORK       PTCLDY    45  43  93 CALM      30.21S FOG
LONGVILLE      MOCLDY    50  48  93 CALM      30.20F
GRAND RAPIDS   PTCLDY    48  46  93 S3        30.20S
CRANE LAKE     PTCLDY    41  41 100 CALM      30.20S
ORR            PTCLDY    46  45  93 CALM      30.17F
COOK           PTCLDY    48  46  93 CALM      30.19F
WALKER         CLOUDY    52  52  99 CALM      30.19F
$$
MNZ012-019>021-037-270800-
   Northeast Minnesota

CITY           SKY/WX    TMP DP  RH WIND       PRES   REMARKS
DULUTH         CLOUDY    53  50  89 W5        30.20R
ELY            CLOUDY    48  46  93 CALM      30.18S
HIBBING        MOCLDY    47  45  93 CALM      30.20S FOG
EVELETH        CLOUDY    52  50  93 CALM      30.20F
DULUTH HARBOR  CLOUDY    59  54  82 CALM      30.21R
TWO HARBORS    CLOUDY    54  48  82 CALM      30.17F
SILVER BAY     LGT RAIN  52  52 100 CALM      30.16F
GRAND MARAIS     N/A     55  51  86 NW5       30.15S
G MARAIS ARPRT LGT RAIN  48  45  87 CALM      30.18S
$$
MNZ029>031-032-039>041-046>048-054>057-064-270800-
   West Central Minnesota

CITY           SKY/WX    TMP DP  RH WIND       PRES   REMARKS
FERGUS FALLS   CLOUDY    59  57  94 CALM      30.20F
WHEATON        MOCLDY    55  54  94 E3        30.21F
MORRIS         MOCLDY    59  57  94 N3        30.19S
ALEXANDRIA     CLOUDY    58  56  93 NE3       30.22F
ELBOW LAKE     CLOUDY    57  56  96 NE3       30.19F
WADENA         CLOUDY    55  55 100 CALM      30.20F
GLENWOOD       MOCLDY    59  57  94 NE6       30.21S
APPLETON       MOCLDY    61  57  88 CALM      30.19F
BENSON         CLOUDY    61  57  88 CALM      30.19F
MADISON        CLOUDY    63  61  94 CALM      30.19F
WILLMAR        MOCLDY    61  57  88 NE3       30.21F
$$
MNZ033>034-036-042>043-049>051-058-059-270800-
   Central Minnesota

CITY           SKY/WX    TMP DP  RH WIND       PRES   REMARKS
ST CLOUD       LGT RAIN  62  58  86 NE5       30.19F
SAUK CENTRE    DRIZZLE   58  56  91 N5        30.21S
PAYNESVILLE    HVY RAIN  58  56  92 CALM      30.21F
AITKIN         CLOUDY    55  52  88 CALM      30.20F HAZE
PINE RIVER     CLOUDY    55  55 100 CALM      30.23F
BRAINERD       MOCLDY    55  55 100 S3        30.21F
STAPLES        CLOUDY    55  55 100 CALM      30.21F
LONG PRAIRIE   HVY RAIN  55  54  94 N3        30.22S
LITTLE FALLS   LGT RAIN  55  54  94 CALM      30.22S
LITCHFIELD     CLOUDY    63  61  94 CALM      30.21S
BUFFALO        CLOUDY    62  57  83 CALM      30.21S
MAPLE LAKE     CLOUDY    61  59  95 CALM      30.22R
$$
MNZ037-044-045-052-053-270800-
   East Central Minnesota

CITY           SKY/WX    TMP DP  RH WIND       PRES   REMARKS
PRINCETON      CLOUDY    61  57  88 NE3       30.21S
MORA           DRIZZLE   55  52  88 CALM      30.22F
CAMBRIDGE      LGT RAIN  61  54  77 CALM      30.19S
RUSH CITY      LGT RAIN  58  55  89 CALM      30.22R
MOOSE LAKE     RAIN      54  52  94 CALM      30.19S
HINCKLEY       RAIN      55  54  94 CALM      30.21S
CLOQUET        CLOUDY    54  52  94 CALM      30.21S
MCGREGOR       CLOUDY    54  52  94 CALM      30.22S
$$
MNZ071>073-080-081-089-090-097-098-270800-
   Southwest Minnesota

CITY           SKY/WX    TMP DP  RH WIND       PRES   REMARKS
MONTEVIDEO     CLOUDY    61  57  88 CALM      30.21S
GRANITE FALLS  CLOUDY    61  58  89 N3        30.21S
CANBY          CLOUDY    60  57  90 CALM      30.21S
MARSHALL       CLOUDY    61  55  82 CALM      30.19S
REDWOOD FALLS  CLOUDY    63  58  83 NE5       30.19R
OLIVIA         CLOUDY    61  55  82 CALM      30.19S
PIPESTONE      PTCLDY    61  55  82 CALM      30.20R
WINDOM         MOCLDY    63  57  82 CALM      30.19S
WORTHINGTON    MOCLDY    57  55  94 N3        30.19F
JACKSON        MOCLDY    57  54  88 CALM      30.19S
TRACY          CLOUDY    62  59  91 CALM      30.20S
SLAYTON        PTCLDY    60  58  94 CALM      30.20S
$$
MNZ065>067-074>077-082>085-091>093-270800-
   South Central Minnesota

CITY           SKY/WX    TMP DP  RH WIND       PRES   REMARKS
MANKATO        CLOUDY    63  55  77 CALM      30.19S
NEW ULM        CLOUDY    64  57  77 NE5       30.19S
ST JAMES       CLOUDY    63  61  94 N3        30.19S
FAIRMONT       MOCLDY    57  54  88 CALM      30.17F
GLENCOE        CLOUDY    63  56  76 CALM      30.19S
FARIBAULT      CLOUDY    64  57  77 CALM      30.19S
OWATONNA       CLOUDY    61  59  94 CALM      30.19S
WASECA         CLOUDY    59  54  82 CALM      30.20F
ALBERT LEA     PTCLDY    59  57  94 CALM      30.19S
$$
MNZ078>079-086>088-094>096-270800-
   Southeast Minnesota

CITY           SKY/WX    TMP DP  RH WIND       PRES   REMARKS
ROCHESTER      MOCLDY    60  56  86 NW3       30.21R
RED WING       CLOUDY    63  59  88 CALM      30.17F
STANTON        CLOUDY    62  59  91 CALM      30.17F
DODGE CENTER   PTCLDY    61  57  88 CALM      30.19S
WINONA         CLOUDY    61  57  88 NW5       30.18S
AUSTIN         PTCLDY    57  55  94 CALM      30.18F
PRESTON        PTCLDY    58  58 100 CALM      30.19S
$$
ABBREVIATIONS USED IN REMARKS
   TC - TEMPERATURES IN CELSIUS
  WCI - WIND CHILL INDEX
   HX - HEAT INDEX
  VSB - VISIBILITY
$$


USA.gov is the U.S. government's official web portal to all federal, state and local government web resources and services.